Other Public Products
Issued by NWS Grand Forks, ND

Home | Current Version | Previous Version | Graphics & Text | Print | Product List | Glossary On
Versions: 1 2 3 4 5 6 7 8 9 10 11 12 13 14 15 16 17 18 19 20 21 22 23 24 25 26 27 28 29 30 31 32 33 34 35 36 37 38 39 40 41 42 43 44 45 46 47 48 49 50
000
FPUS83 KFGF 291510
OPUFGF
PRAIRIE TO PINES WEATHER ROUNDUP
NATIONAL WEATHER SERVICE EASTERN NORTH DAKOTA/GRAND FORKS ND
900 AM CST THU JAN 29 2015

 **SATELLITE DATA USED TO AUGMENT SKY COVER AT AUTOMATED STATIONS**
 *****  WEATHER ACROSS EASTERN NORTH DAKOTA  *****

CITY           SKY/WX    TMP DP  RH WIND       PRES   REMARKS
GRAND FORKS    CLOUDY    13   6  74 N23G33    30.44R WCI  -6
GRAND FORKS AF CLOUDY    12   5  73 N16G25    30.45R WCI  -4
GRAND CITY NWS   N/A     12 N/A N/A N21         N/A  WCI  -6
BUXTON         NOT AVBL
DEVILS LAKE    CLOUDY    16   9  73 N15       30.42R WCI   1
FARGO          CLOUDY    20  12  71 N26       30.40R WCI   2
WAHPETON ARPT  CLOUDY    23  16  74 NW22G28   30.37R WCI   8
$$

 *****  WEATHER ACROSS CENTRAL AND WESTERN NORTH DAKOTA  *****

CITY           SKY/WX    TMP DP  RH WIND       PRES   REMARKS
JAMESTOWN      CLOUDY    20  15  81 NW22G30   30.40R WCI   3
BISMARCK       CLOUDY    27  19  72 N20G25    30.46R WCI  13
MINOT          CLOUDY    19  14  81 NW17      30.46R WCI   4
MINOT AFB      CLOUDY    18  18  98 N20       30.46R WCI   2
GARRISON         N/A     25  20  81 NW17      30.44R WCI  12
WILLISTON      PTCLDY    20  16  84 W8        30.48R WCI  10
DICKINSON      PTCLDY    24  19  81 NW13      30.41R WCI  12
HETTINGER      CLOUDY    26  21  81 NW17G25   30.45R WCI  13
$$

 *****  OTHER OBSERVATIONS NORTHEAST NORTH DAKOTA  *****

CITY           SKY/WX    TMP DP  RH WIND       PRES   REMARKS
WALHALLA       FLURRIES   9   9 100 NW21      30.48R WCI -11
LANGDON        NOT AVBL
CAVALIER       FLURRIES  10   5  79 N22G32    30.47R WCI  -9
GRAFTON        NOT AVBL
CANDO          LGT SNOW  14  10  85 N16       30.46R WCI  -2
FORT TOTTEN      N/A     16  12  84 NW8       29.95S WCI   5
ROLLA          FLURRIES  10   9  92 MISG      30.44R
RUGBY          FLURRIES  14   9  79 N15       30.46R WCI  -1
 ***** THE ABOVE OBSERVATIONS ARE NON NWS ARE NOT QUALITY
        CONTROLLED AND MAY MIS-REPORT RAIN FOR SNOW...
$$

 *****  OTHER OBSERVATIONS SOUTHEAST NORTH DAKOTA *****

CITY           SKY/WX    TMP DP  RH WIND       PRES   REMARKS
COOPERSTOWN    NOT AVBL
VALLEY CITY    FLURRIES  21  21 100 N16G26    30.39R WCI   7
OAKES            N/A     25  23  93 NW22G28   30.39R WCI  10
GWINNER        CLOUDY    28  27  93 N14       30.39R WCI  17
BUFFALO        NOT AVBL
WYNDMERE         N/A     25  19  80 N15         N/A  WCI  12
 ***** THE ABOVE OBSERVATIONS ARE NON NWS ARE NOT QUALITY
       CONTROLLED AND MAY MIS-REPORT RAIN FOR SNOW...
$$

  *****  WEATHER ACROSS NORTHERN MINNESOTA  *****

CITY           SKY/WX    TMP DP  RH WIND       PRES   REMARKS
FLAG ISLAND    CLOUDY     3  -2  78 NW23G29   30.31R HAZE    WCI -19
WARROAD        CLEAR      3  -2  78 NW17G23   30.33R WCI -17
ROSEAU         PTCLDY     7   0  72 NW22G28   30.35R WCI -14
HALLOCK        CLOUDY     7   1  78 N21G28    30.44R WCI -13
THF RVR FALLS  CLOUDY     9   5  85 NW20      30.36R WCI -11
HALSTAD          N/A     16   9  72 N25         N/A  WCI  -3
FOSSTON        LGT SNOW   9   7  92 NW17G24   30.33R WCI -10
BAUDETTE       CLOUDY     6   1  80 NW16G31   30.27R WCI -12
WASKISH        FLURRIES  12   9  85 NW14      30.26R WCI  -3
CROOKSTON      MOCLDY    10   7  85 N29       30.42R WCI -11
$$
  *****  WEATHER ACROSS CENTRAL AND WEST MINNESOTA  *****

CITY           SKY/WX    TMP DP  RH WIND       PRES   REMARKS
BEMIDJI        LGT SNOW  13  10  86 NW22      30.24R WCI  -6
PARK RAPIDS    CLOUDY    17  13  84 NW20G25   30.23R WCI   1
WADENA         CLOUDY    16  12  86 NW17G23   30.26R WCI   0
DETROIT LAKES  FLURRIES  16  12  86 NW20G25   30.32R WCI  -1
MOORHEAD       CLOUDY    19  16  86 N20G30    30.39R WCI   4
FERGUS FALLS   CLOUDY    18  14  86 N22G29    30.37R WCI   0
ELBOW LAKE     CLOUDY    18  13  81 N22G32    30.31R WCI   1
MORRIS MN      CLOUDY    21  16  79 NW31G38   30.31R WCI   3
STAPLES        CLOUDY    19  16  86 NW15G21   30.24R WCI   5
WHEATON        CLOUDY    21  18  86 NW15      30.39R WCI   8
$$
  *****  WEATHER ELSEWHERE ACROSS MINNESOTA  *****

CITY           SKY/WX    TMP DP  RH WIND       PRES   REMARKS
DULUTH         PTSUNNY   26  19  74 NW13G24   30.04R WCI  15
INTRNTL FALLS  LGT SNOW  14   9  80 NW18G26   30.18R WCI  -3
ELY            FLURRIES  19  16  86 NW14G21   30.04R WCI   6
CLOQUET        CLOUDY    25  19  80 NW13G24   30.08R WCI  13
BRAINERD       CLOUDY    22  17  81 NW14G25   30.20R WCI   9
HIBBING        CLOUDY    22  16  78 NW23      30.10R WCI   6
ALEXANDRIA     CLOUDY    20  14  77 NW18G31   30.26R WCI   5
SAINT CLOUD    CLOUDY    26  20  77 NW13G29   30.19R WCI  15
MINNEAPOLIS    CLOUDY    30  24  78 NW13G24   30.15R WCI  20
$$

  *****  WEATHER ACROSS SOUTH DAKOTA  *****

CITY           SKY/WX    TMP DP  RH WIND       PRES   REMARKS
SIOUX FALLS    CLOUDY    31  25  78 NW21G26   30.33R WCI  18
BROOKINGS      NOT AVBL
WATERTOWN      CLOUDY    27  22  81 NW22G28   30.32R WCI  13
HURON          CLOUDY    32  26  78 N12       30.39R WCI  23
SISSETON         N/A     25  22  88 N16       30.36R WCI  12
ABERDEEN       CLOUDY    29  22  75 N17G28    30.41R WCI  17
MITCHELL       CLOUDY    33  28  81 NW13      30.40R WCI  24
PIERRE         MOCLDY    32  26  78 N9        30.44R WCI  24
MOBRIDGE       CLOUDY    30  21  69 N12       30.41R WCI  20
RAPID CITY     CLEAR     23  19  85 CALM      30.45R
$$

  *****  SOME WEATHER IN NEARBY STATES *****

CITY           SKY/WX    TMP DP  RH WIND       PRES   REMARKS
GLASGOW MT     FOG       21  19  92 E7        30.44S VSB<1/4 WCI  12
GREAT FALLS MT CLEAR     25  20  81 S8        30.32S WCI  16
CHEYENNE WY    PTCLDY    30  22  72 NW7       30.45R WCI  23
SCOTTSBLUFF NE CLEAR     30  25  81 W10       30.48R WCI  21
OMAHA NE       CLOUDY    36  28  73 N21G31    30.30R
DES MOINES IA  CLOUDY    35  29  78 NW23G32   30.18R WCI  23
DAVENPORT IA   CLOUDY    34  27  75 NW20      30.00R WCI  23
CHICAGO IL     LGT SNOW  33  29  85 NW17G25   29.82R FOG     WCI  22
EAU CLAIRE WI  CLOUDY    32  25  75 NW13G24   30.03R WCI  22
LA CROSSE WI   LGT RAIN  35  30  82 NW18G24   30.02R WCI  24
$$

  *****  SOME NATIONAL WEATHER *****

CITY           SKY/WX    TMP DP  RH WIND       PRES   REMARKS
LA GUARDIA NY  PTSUNNY   25   2  37 NE5       30.32F WCI  19
RALEIGH NC     PTSUNNY   34  10  37 S7        30.35F
ATLANTA GA     PTSUNNY   41  28  60 S9        30.29F
NEW ORLEANS LA MOSUNNY   62  54  74 S6        30.25R
OKLAHOMA CITY  MOSUNNY   50  34  54 N22G30    30.33R
ALBUQUERQUE NM CLOUDY    48  28  46 E24G33    30.35R
SALT LAKE CITY MOCLDY    30  28  92 N5        30.36S
LOS ANGELES CA CLOUDY    61  45  55 E3        30.03R
BOISE ID       PTCLDY    33  30  88 CALM      30.42S
SEATTLE WA     MOCLDY    42  38  85 NE6       30.35F
$$

*** WEATHER ACROSS MANITOBA...SASKATCHEWAN AND ONTARIO ***
                ***ONTARIO***

CITY           SKY/WX    TMP DP  RH WIND       PRES   REMARKS
GERALDTON      LGT SNOW   1  -4  78 N13G23    29.94R DRFTSNOWWCI -16
THUNDER BAY    FLURRIES  21  14  73 NW17G28   29.98R WCI   7
SIOUX LOOKOUT  FLURRIES   5   1  85 N10       30.16R WCI -10
TORONTO        CLOUDY    28  10  47 SE10G17   29.91F WCI  19
BIG TROUT LK   FLURRIES -15 -20  76 NW9       30.24R WCI -33
PICKLE LAKE    FLURRIES  -4 -11  71 N8        30.14R WCI -19
DRYDEN         FLURRIES   7   3  85 NW13G20   30.17R WCI  -9
KENORA         LGT SNOW   3   0  85 NW14G24   30.25R DRFTSNOWWCI -15
$$
                *** MANITOBA***

CITY           SKY/WX    TMP DP  RH WIND       PRES   REMARKS
BRANDON        FLURRIES  10   3  72 N12       30.49R WCI  -4
DAUPHIN        MOCLDY    -2  -8  78 N8        30.57R WCI -17
ISLAND LAKE    CLEAR    -13 -20  70 NW6       30.39R WCI -27
PILOT MOUND    NOT AVBL
THE PAS        CLEAR    -15 -20  76 NW9       30.58R WCI -33
THOMPSON       CLEAR    -20 -27  69 W5        30.44S WCI -33
WINNIPEG       MOCLDY     3  -4  72 NW21      30.49R WCI -18
LYNN LAKE      CLEAR    -22 -27  76 W10       30.42S WCI -44
CHURCHILL      PTCLDY   -22 -31  63 W14       30.26S WCI -47
GILLAM         CLEAR    -22 -29  69 W13       30.35S WCI -46
$$
                ***SASKATCHEWAN***

CITY           SKY/WX    TMP DP  RH WIND       PRES   REMARKS
ESTEVAN        FLURRIES  16  14  93 N9        30.48R WCI   4
KINDERSLEY     CLOUDY    10   7  85 SE7       30.39F WCI   0
LLOYDMINSTER   PTCLDY     3   0  85 SE9       30.37F WCI -11
PRINCE ALBERT  FLURRIES  -2  -6  84 CALM      30.54S
REGINA         FLURRIES  12   9  85 NE3       30.48R
YORKTON        CLOUDY     3   0  85 N7        30.51R WCI  -9


USA.gov is the U.S. government's official web portal to all federal, state and local government web resources and services.